TimeCDT,TemperatureF,Dew PointF,Humidity,Sea Level PressureIn,VisibilityMPH,Wind Direction,Wind SpeedMPH,Gust SpeedMPH,PrecipitationIn,Events,Conditions,WindDirDegrees,DateUTC
12:51 AM,73.9,66.9,79,29.84,10.0,East,9.2,-,N/A,,Overcast,80,2013-07-22 05:51:00
1:51 AM,73.9,66.0,76,29.83,10.0,ESE,6.9,-,N/A,,Overcast,110,2013-07-22 06:51:00
2:51 AM,75.0,64.9,71,29.82,10.0,ESE,4.6,-,N/A,,Overcast,120,2013-07-22 07:51:00
3:51 AM,73.9,64.0,71,29.80,10.0,SSE,5.8,-,N/A,,Overcast,160,2013-07-22 08:51:00
4:51 AM,73.9,64.0,71,29.80,10.0,SE,6.9,-,N/A,,Mostly Cloudy,140,2013-07-22 09:51:00
5:51 AM,72.0,64.0,76,29.81,10.0,SSE,3.5,-,N/A,,Scattered Clouds,160,2013-07-22 10:51:00
6:51 AM,72.0,64.9,78,29.82,10.0,SSE,4.6,-,N/A,,Mostly Cloudy,150,2013-07-22 11:51:00
7:51 AM,73.9,66.0,76,29.81,10.0,South,5.8,-,N/A,,Scattered Clouds,170,2013-07-22 12:51:00
8:17 AM,75.2,66.2,73,29.85,10.0,South,8.1,-,N/A,,Mostly Cloudy,190,2013-07-22 13:17:00
8:33 AM,75.2,66.2,73,29.84,10.0,South,10.4,-,N/A,,Scattered Clouds,170,2013-07-22 13:33:00
8:51 AM,77.0,66.0,69,29.82,10.0,SSE,9.2,-,N/A,,Scattered Clouds,160,2013-07-22 13:51:00
9:51 AM,80.1,64.9,60,29.82,10.0,South,6.9,-,N/A,,Scattered Clouds,190,2013-07-22 14:51:00
10:51 AM,82.0,64.0,54,29.79,10.0,SSE,8.1,-,N/A,,Scattered Clouds,160,2013-07-22 15:51:00
11:51 AM,82.9,62.1,49,29.79,10.0,Calm,Calm,-,N/A,,Partly Cloudy,0,2013-07-22 16:51:00
12:51 PM,86.0,61.0,43,29.79,10.0,SSW,6.9,-,N/A,,Scattered Clouds,210,2013-07-22 17:51:00
1:51 PM,87.1,59.0,39,29.77,10.0,Variable,4.6,-,N/A,,Partly Cloudy,0,2013-07-22 18:51:00
2:51 PM,88.0,61.0,40,29.75,10.0,Variable,5.8,-,N/A,,Scattered Clouds,0,2013-07-22 19:51:00
3:51 PM,89.1,61.0,39,29.74,10.0,SW,9.2,-,N/A,,Scattered Clouds,230,2013-07-22 20:51:00
4:51 PM,87.1,62.1,43,29.73,10.0,WSW,12.7,-,N/A,,Scattered Clouds,250,2013-07-22 21:51:00
5:51 PM,86.0,64.0,48,29.72,10.0,SW,9.2,-,N/A,,Scattered Clouds,230,2013-07-22 22:51:00
6:51 PM,86.0,64.0,48,29.71,10.0,SSW,11.5,18.4,N/A,,Scattered Clouds,210,2013-07-22 23:51:00
7:51 PM,84.0,64.0,51,29.72,10.0,WSW,13.8,-,N/A,,Mostly Cloudy,250,2013-07-23 00:51:00
8:51 PM,82.0,64.9,56,29.72,10.0,SW,9.2,-,N/A,,Overcast,230,2013-07-23 01:51:00
9:51 PM,81.0,64.9,58,29.73,10.0,SW,6.9,-,N/A,,Overcast,230,2013-07-23 02:51:00
10:51 PM,81.0,66.0,60,29.73,10.0,SW,4.6,-,N/A,,Mostly Cloudy,220,2013-07-23 03:51:00
11:51 PM,81.0,66.9,62,29.73,10.0,SSW,9.2,-,N/A,,Mostly Cloudy,210,2013-07-23 04:51:00